Fort Worth Alliance, TX

2:24 AM CST on January 19, 2018 (GMT -0600)
Fort Worth Alliance

Weather History for KAFW - April, 2014

Change the Weather History Date:

Tuesday, April 8, 2014

  Actual Average Record
Temperature  
Mean Temperature 58 °F -  
Max Temperature 69 °F 71 °F 91 °F (2011)
Min Temperature 44 °F 48 °F 36 °F (2003)
Degree Days  
Heating Degree Days 8    
Growing Degree Days 8 (Base 50)    
Moisture  
Dew Point 38 °F    
Average Humidity 56    
Maximum Humidity 86    
Minimum Humidity 25    
Precipitation  
Precipitation 0.00 in - - ()
Sea Level Pressure  
Sea Level Pressure 30.10 in    
Wind  
Wind Speed 12 mph (NW)    
Max Wind Speed 26 mph    
Max Gust Speed 38 mph    
Visibility 10 miles    
Events      
Averages and records for this station are not official NWS values.
T = Trace of Precipitation, MM = Missing Value Source: NWS Daily Summary

Daily Weather History Graph

Daily Weather History Graph

Search for Another Location

Airport or City:

Trip Planner

Search our weather history database for the weather conditions in past years. The results will help you decide how hot, cold, wet, or windy it might be!

Date:

Astronomy

Apr. 08, 2014 Rise Set
Actual Time 7:08 AM CDT 7:54 PM CDT
Civil Twilight 6:43 AM CDT 8:19 PM CDT
Nautical Twilight 6:13 AM CDT 8:49 PM CDT
Astronomical Twilight 5:43 AM CDT 9:19 PM CDT
Moon 2:06 PM CDT (4/8) 3:03 AM CDT (4/8)
Length of Visible Light 13h 36m
Length of Day
12h 46m
Waxing Gibbous, 63% of the Moon is Illuminated
Apr 8
Waxing Gibbous
Apr 15
Full
Apr 22
Last Quarter
Apr 29
New
May 6
First Quarter

Hourly Weather History & Observations

Time (CDT) Temp. Windchill Dew Point Humidity Pressure Visibility Wind Dir Wind Speed Gust Speed Precip Events Conditions
12:53 AM 50.0 °F - 45.0 °F 83% 30.01 in 10.0 mi West 8.1 mph - N/A   Scattered Clouds
1:53 AM 50.0 °F - 46.0 °F 86% 30.01 in 10.0 mi West 9.2 mph - N/A   Scattered Clouds
2:53 AM 50.0 °F - 45.0 °F 83% 30.01 in 10.0 mi WNW 8.1 mph - N/A   Scattered Clouds
3:53 AM 50.0 °F - 44.1 °F 80% 30.01 in 10.0 mi WNW 8.1 mph - N/A   Partly Cloudy
4:53 AM 50.0 °F - 42.1 °F 74% 30.02 in 10.0 mi WNW 13.8 mph - N/A   Clear
5:53 AM 48.0 °F - 41.0 °F 77% 30.03 in 10.0 mi WNW 10.4 mph - N/A   Clear
6:53 AM 46.9 °F - 39.9 °F 77% 30.06 in 10.0 mi WNW 9.2 mph - N/A   Partly Cloudy
7:53 AM 48.0 °F - 39.0 °F 71% 30.10 in 10.0 mi WNW 12.7 mph - N/A   Clear
8:53 AM 51.1 °F - 37.9 °F 61% 30.12 in 10.0 mi NW 12.7 mph 25.3 mph N/A   Clear
9:53 AM 55.0 °F - 37.0 °F 51% 30.14 in 10.0 mi NW 20.7 mph 29.9 mph N/A   Clear
10:53 AM 57.9 °F - 37.0 °F 46% 30.17 in 10.0 mi NW 17.3 mph 27.6 mph N/A   Clear
11:53 AM 62.1 °F - 35.1 °F 37% 30.16 in 10.0 mi NNW 23.0 mph 32.2 mph N/A   Clear
12:53 PM 64.0 °F - 33.1 °F 31% 30.14 in 10.0 mi North 26.5 mph 34.5 mph N/A   Clear
1:53 PM 66.0 °F - 35.1 °F 32% 30.13 in 10.0 mi NNW 23.0 mph 29.9 mph N/A   Partly Cloudy
2:53 PM 68.0 °F - 32.0 °F 26% 30.11 in 10.0 mi NNW 21.9 mph 38.0 mph N/A   Partly Cloudy
3:53 PM 68.0 °F - 33.1 °F 27% 30.09 in 10.0 mi NNW 16.1 mph 28.8 mph N/A   Partly Cloudy
4:53 PM 69.1 °F - 32.0 °F 25% 30.09 in 10.0 mi NNW 18.4 mph - N/A   Partly Cloudy
5:53 PM 69.1 °F - 32.0 °F 25% 30.09 in 10.0 mi NNW 15.0 mph 23.0 mph N/A   Partly Cloudy
6:53 PM 66.9 °F - 33.1 °F 28% 30.09 in 10.0 mi North 12.7 mph - N/A   Clear
7:53 PM 64.0 °F - 36.0 °F 35% 30.10 in 10.0 mi NNW 4.6 mph - N/A   Partly Cloudy
8:53 PM 55.9 °F - 37.0 °F 49% 30.13 in 10.0 mi Calm Calm - N/A   Partly Cloudy
9:53 PM 48.0 °F - 41.0 °F 77% 30.16 in 10.0 mi SW 3.5 mph - N/A   Clear
10:53 PM 48.9 °F - 39.9 °F 71% 30.17 in 10.0 mi Calm Calm - N/A   Clear
11:53 PM 44.1 °F 42.5 °F 39.9 °F 85% 30.18 in 10.0 mi WSW 3.5 mph - N/A   Clear